Location: Peterborough
(44.3091°N, 78.3197°W)
Time: 08:37:42
(UTC-05:00)

Transit 4A - Pass Details

Date: 02 October 2023
Orbit: 864 x 979 km, 66.8° (Epoch: 07 December)

Event Time Altitude Azimuth Distance (km) Brightness Sun altitude
Rises 20:52:19 0° 326° (NW) 3,671 11.8 -22.0°
Reaches altitude 10° 20:54:55 10° 324° (NW) 2,710 11.0 -22.5°
Maximum altitude 21:01:11 67° 243° (WSW) 1,022 8.2 -23.6°
Enters shadow 21:04:20 30° 169° (S) 1,619 8.9 -24.1°
